• Em Portugal
  • Lista de países
  • Para 7 dias
  • Temperatura da água
  • Mapas de satélite
  • Mapa do tempo
  • Widgets de tempo
  • user-avatar
    Iniciar Sessão

    Previsão horária em Michalowka

    Hoje, 19 Agosto, Domingo

    Tempo Temperatura Precipitação Vento Pressão Humidade
    00:00 +16°C° 0 mm 2 m/s 750 mmHg 94%
    01:00 +15°C° 0 mm 2 m/s 750 mmHg 93%
    02:00 +14°C° 0 mm 2 m/s 750 mmHg 93%
    03:00 +14°C° 0 mm 2 m/s 750 mmHg 92%
    04:00 +14°C° 0 mm 1 m/s 750 mmHg 91%
    05:00 +13°C° 0 mm 1 m/s 750 mmHg 90%
    06:00 +15°C° 0 mm 1 m/s 751 mmHg 85%
    07:00 +16°C° 0 mm 2 m/s 751 mmHg 81%
    08:00 +17°C° 0 mm 2 m/s 751 mmHg 77%
    09:00 +19°C° 0 mm 2 m/s 751 mmHg 71%
    10:00 +20°C° 0 mm 3 m/s 751 mmHg 65%
    11:00 +22°C° 0 mm 3 m/s 751 mmHg 59%
    12:00 +24°C° 0 mm 3 m/s 751 mmHg 58%
    13:00 +24°C° 0 mm 3 m/s 751 mmHg 57%
    14:00 +25°C° 0 mm 3 m/s 750 mmHg 55%
    15:00 +25°C° 0 mm 3 m/s 750 mmHg 58%
    16:00 +25°C° 0 mm 3 m/s 750 mmHg 60%
    17:00 +24°C° 0 mm 3 m/s 750 mmHg 62%
    18:00 +23°C° 0 mm 2 m/s 750 mmHg 68%
    19:00 +21°C° 0 mm 1 m/s 750 mmHg 74%
    20:00 +20°C° 0 mm 1 m/s 749 mmHg 80%
    21:00 +19°C° 0 mm 1 m/s 749 mmHg 82%
    22:00 +19°C° 0 mm 1 m/s 749 mmHg 83%
    23:00 +18°C° 0 mm 1 m/s 749 mmHg 85%

    Amanhã, 20 Agosto, Segunda-feira

    Tempo Temperatura Precipitação Vento Pressão Humidade
    00:00 +18°C° 0 mm 1 m/s 749 mmHg 85%
    01:00 +17°C° 0 mm 2 m/s 749 mmHg 84%
    02:00 +16°C° 0 mm 2 m/s 749 mmHg 84%
    03:00 +16°C° 0 mm 2 m/s 749 mmHg 83%
    04:00 +16°C° 0 mm 2 m/s 748 mmHg 82%
    05:00 +16°C° 0 mm 3 m/s 748 mmHg 81%
    06:00 +17°C° 0 mm 3 m/s 748 mmHg 78%
    07:00 +19°C° 0 mm 3 m/s 747 mmHg 75%
    08:00 +20°C° 0 mm 4 m/s 747 mmHg 72%
    09:00 +22°C° 0 mm 4 m/s 747 mmHg 67%
    10:00 +25°C° 0 mm 4 m/s 747 mmHg 62%
    11:00 +26°C° 0 mm 5 m/s 746 mmHg 58%
    12:00 +27°C° 0,2 mm 5 m/s 746 mmHg 57%
    13:00 +27°C° 0,2 mm 5 m/s 745 mmHg 57%
    14:00 +28°C° 0,2 mm 5 m/s 745 mmHg 57%
    15:00 +27°C° 0,7 mm 5 m/s 745 mmHg 61%
    16:00 +27°C° 0,7 mm 4 m/s 744 mmHg 65%
    17:00 +26°C° 0,7 mm 4 m/s 744 mmHg 70%
    18:00 +25°C° 0,3 mm 4 m/s 744 mmHg 74%
    19:00 +22°C° 0,3 mm 3 m/s 743 mmHg 79%
    20:00 +20°C° 0,3 mm 3 m/s 743 mmHg 84%
    21:00 +20°C° 0 mm 3 m/s 743 mmHg 86%
    22:00 +19°C° 0 mm 3 m/s 743 mmHg 88%
    23:00 +18°C° 0 mm 3 m/s 743 mmHg 90%

    Depois de amanhã, 21 Agosto, Terça-feira

    Tempo Temperatura Precipitação Vento Pressão Humidade
    00:00 +18°C° 0 mm 4 m/s 744 mmHg 91%
    01:00 +17°C° 0 mm 4 m/s 744 mmHg 92%
    02:00 +15°C° 0 mm 4 m/s 744 mmHg 92%
    03:00 +15°C° 0 mm 4 m/s 744 mmHg 93%
    04:00 +14°C° 0 mm 4 m/s 745 mmHg 94%
    05:00 +14°C° 0 mm 4 m/s 745 mmHg 95%
    06:00 +14°C° 0 mm 4 m/s 746 mmHg 91%
    07:00 +15°C° 0 mm 4 m/s 746 mmHg 87%
    08:00 +17°C° 0 mm 4 m/s 747 mmHg 83%
    09:00 +18°C° 0 mm 4 m/s 747 mmHg 75%
    10:00 +19°C° 0 mm 4 m/s 748 mmHg 68%
    11:00 +20°C° 0 mm 4 m/s 748 mmHg 61%
    12:00 +21°C° 0 mm 4 m/s 748 mmHg 58%
    13:00 +21°C° 0 mm 4 m/s 749 mmHg 56%
    14:00 +22°C° 0 mm 4 m/s 749 mmHg 54%
    15:00 +21°C° 0,1 mm 4 m/s 749 mmHg 56%
    16:00 +21°C° 0,1 mm 4 m/s 749 mmHg 59%
    17:00 +21°C° 0,1 mm 4 m/s 749 mmHg 61%
    18:00 +19°C° 0 mm 3 m/s 750 mmHg 68%
    19:00 +17°C° 0 mm 3 m/s 750 mmHg 74%
    20:00 +16°C° 0 mm 2 m/s 750 mmHg 81%
    21:00 +15°C° 0 mm 2 m/s 751 mmHg 83%
    22:00 +14°C° 0 mm 2 m/s 751 mmHg 86%
    23:00 +13°C° 0 mm 2 m/s 751 mmHg 88%

    22 Agosto, Quarta-feira

    Tempo Temperatura Precipitação Vento Pressão Humidade
    00:00 +12°C° 0 mm 2 m/s 752 mmHg 88%
    01:00 +12°C° 0 mm 1 m/s 752 mmHg 89%
    02:00 +11°C° 0 mm 1 m/s 752 mmHg 89%
    03:00 +11°C° 0 mm 1 m/s 752 mmHg 89%
    04:00 +10°C° 0 mm 1 m/s 753 mmHg 89%
    05:00 +10°C° 0 mm 1 m/s 753 mmHg 89%
    06:00 +12°C° 0 mm 1 m/s 753 mmHg 83%
    07:00 +13°C° 0 mm 1 m/s 753 mmHg 77%
    08:00 +15°C° 0 mm 1 m/s 753 mmHg 71%
    09:00 +18°C° 0 mm 1 m/s 753 mmHg 65%
    10:00 +19°C° 0 mm 1 m/s 753 mmHg 58%
    11:00 +21°C° 0 mm 1 m/s 753 mmHg 52%
    12:00 +22°C° 0 mm 1 m/s 753 mmHg 49%
    13:00 +22°C° 0 mm 1 m/s 753 mmHg 47%
    14:00 +23°C° 0 mm 2 m/s 752 mmHg 44%
    15:00 +23°C° 0 mm 2 m/s 752 mmHg 45%
    16:00 +23°C° 0 mm 1 m/s 752 mmHg 47%
    17:00 +23°C° 0 mm 1 m/s 751 mmHg 48%
    18:00 +22°C° 0 mm 1 m/s 751 mmHg 53%
    19:00 +20°C° 0 mm 1 m/s 751 mmHg 58%
    20:00 +18°C° 0 mm 1 m/s 751 mmHg 63%
    21:00 +16°C° 0 mm 2 m/s 751 mmHg 65%
    22:00 +16°C° 0 mm 2 m/s 751 mmHg 66%
    23:00 +15°C° 0 mm 2 m/s 751 mmHg 68%

    23 Agosto, Quinta-feira

    Tempo Temperatura Precipitação Vento Pressão Humidade
    00:00 +14°C° 0 mm 3 m/s 750 mmHg 69%
    01:00 +14°C° 0 mm 3 m/s 750 mmHg 71%
    02:00 +14°C° 0 mm 3 m/s 750 mmHg 73%
    03:00 +14°C° 0 mm 3 m/s 750 mmHg 76%
    04:00 +13°C° 0 mm 3 m/s 750 mmHg 78%
    05:00 +13°C° 0 mm 3 m/s 749 mmHg 81%
    06:00 +16°C° 0 mm 3 m/s 749 mmHg 78%
    07:00 +17°C° 0 mm 3 m/s 749 mmHg 76%
    08:00 +19°C° 0 mm 4 m/s 749 mmHg 73%
    09:00 +20°C° 0 mm 3 m/s 749 mmHg 69%
    10:00 +22°C° 0 mm 3 m/s 749 mmHg 64%
    11:00 +25°C° 0 mm 3 m/s 749 mmHg 59%
    12:00 +25°C° 0,1 mm 3 m/s 749 mmHg 57%
    13:00 +26°C° 0,1 mm 3 m/s 749 mmHg 54%
    14:00 +27°C° 0,1 mm 3 m/s 748 mmHg 52%
    15:00 +27°C° 0,1 mm 3 m/s 748 mmHg 53%
    16:00 +26°C° 0,1 mm 3 m/s 748 mmHg 54%
    17:00 +26°C° 0,1 mm 2 m/s 747 mmHg 56%
    18:00 +24°C° 0 mm 2 m/s 747 mmHg 61%
    19:00 +23°C° 0 mm 2 m/s 747 mmHg 66%
    20:00 +20°C° 0 mm 2 m/s 747 mmHg 71%
    21:00 +19°C° 0 mm 2 m/s 747 mmHg 73%
    22:00 +18°C° 0 mm 3 m/s 747 mmHg 75%
    23:00 +17°C° 0 mm 3 m/s 747 mmHg 77%

    24 Agosto, Sexta-feira

    Tempo Temperatura Precipitação Vento Pressão Humidade
    00:00 +17°C° 0 mm 3 m/s 746 mmHg 79%
    01:00 +17°C° 0 mm 3 m/s 746 mmHg 81%
    02:00 +16°C° 0 mm 3 m/s 746 mmHg 83%
    03:00 +16°C° 0 mm 3 m/s 745 mmHg 84%
    04:00 +16°C° 0 mm 3 m/s 745 mmHg 84%
    05:00 +16°C° 0 mm 3 m/s 745 mmHg 85%
    06:00 +17°C° 0 mm 4 m/s 744 mmHg 82%
    07:00 +18°C° 0 mm 4 m/s 744 mmHg 80%
    08:00 +19°C° 0 mm 4 m/s 744 mmHg 77%
    09:00 +21°C° 0 mm 5 m/s 744 mmHg 73%
    10:00 +22°C° 0 mm 5 m/s 744 mmHg 68%
    11:00 +25°C° 0 mm 5 m/s 744 mmHg 64%
    12:00 +26°C° 0 mm 5 m/s 743 mmHg 60%
    13:00 +28°C° 0 mm 5 m/s 743 mmHg 56%
    14:00 +29°C° 0 mm 4 m/s 743 mmHg 53%
    15:00 +28°C° 0,1 mm 4 m/s 742 mmHg 55%
    16:00 +28°C° 0,1 mm 4 m/s 742 mmHg 57%
    17:00 +28°C° 0,1 mm 3 m/s 742 mmHg 59%
    18:00 +26°C° 0,8 mm 4 m/s 741 mmHg 67%
    19:00 +23°C° 0,8 mm 4 m/s 741 mmHg 74%
    20:00 +21°C° 0,8 mm 5 m/s 741 mmHg 81%
    21:00 +21°C° 0,7 mm 5 m/s 741 mmHg 83%
    22:00 +20°C° 0,7 mm 5 m/s 741 mmHg 85%
    23:00 +19°C° 0,7 mm 5 m/s 741 mmHg 87%
    Mostrar mais